Regional Weather Roundup
Issued by NWS

Home | Current Version | Previous Version | Graphics & Text | Print | Product List | Glossary On
Versions: 1 2 3 4 5 6 7 8 9 10 11 12 13 14 15 16 17 18 19 20 21 22 23 24 25 26 27 28 29 30 31 32 33 34 35 36 37 38 39 40 41 42 43 44 45 46 47 48 49 50
000
ASUS45 KSLC 240010
RWRUT

UTAH REGIONAL WEATHER ROUNDUP
NATIONAL WEATHER SERVICE SALT LAKE CITY UT
600 PM MDT SAT JUL 23 2016

UTZ001>011-023>025-240100-

NORTHERN UTAH

CITY           SKY/WX    TMP DP  RH WIND       PRES   REMARKS
BRIGHAM CITY     N/A     90  13   6 S9        30.05F
HILL AFB       SUNNY     89  22   8 N9        30.09F
LOGAN          SUNNY     88  28  11 CALM      30.05F
OGDEN          SUNNY     89  22   8 N7        30.06F
PROVO AIRPORT  SUNNY     97  43  15 NW12      30.03F HX  92
SALT LAKE CITY MOSUNNY   93  19   7 N15       30.03F
VERNAL         CLOUDY    96  26   8 W13       30.02F HX  90
WENDOVER       SUNNY     90  30  12 SE6       30.04F
HEBER CITY     SUNNY     91  25   9 W9        30.10F

$$

UTZ012>022-026-027-240100-

SOUTHERN/CENTRAL UTAH

CITY           SKY/WX    TMP DP  RH WIND       PRES   REMARKS
BLANDING       PTSUNNY   85  46  26 NE9       30.18F
BRYCE CANYON   PTSUNNY   84  34  16 N6        30.27S
CEDAR CITY     SUNNY     96  33  11 SW18      30.07F HX  91
DELTA          SUNNY     95  23   7 NW3       30.02F
MILFORD        MOSUNNY   97  28   8 VRB6      30.00F HX  91
MOAB/CYNLANDS  MOSUNNY   98  37  12 NW13      29.95F HX  93
PRICE          SUNNY     94  26   9 W20G29    30.08F
ST GEORGE      CLEAR    108  39   9 W16G22    29.84F HX 101
KANAB          MOSUNNY  100  36  10 SW12      30.04F HX  95

$$

REGIONAL REPORTS     COLORADO/ARIZONA

CITY           SKY/WX    TMP DP  RH WIND       PRES   REMARKS
CRAIG, CO      CLOUDY    91  30  11 W12       30.12F
GRAND JUNCTION CLOUDY    97  37  12 CALM      29.99F HX  92
RIFLE          SUNNY     93  40  15 N9        30.07F
MONTROSE       CLOUDY    91  41  17 NW6       30.11S
CORTEZ         SUNNY     90  40  17 N21G30    30.12S
PAGE, AZ       MOSUNNY  102  38  11 SW6       29.93F HX  96
GRAND CANYON   MOSUNNY   90  38  16 SW9       30.20F
KINGMAN        SUNNY    102  44  14 SW22      29.94F HX  98
FLAGSTAFF      CLOUDY    73  47  39 E7G25     30.26S THUNDER

$$

REGIONAL REPORTS    NEVADA/IDAHO/WYOMING

CITY           SKY/WX    TMP DP  RH WIND       PRES   REMARKS
LAS VEGAS, NV  SUNNY    111  24   5 SW12G20   29.73S HX 102
ELY            SUNNY     92  13   5 W13       30.12F
ELKO           SUNNY     90   8   4 SW15      30.10F
POCATELLO, ID  MOSUNNY   83  31  15 SW17      30.11F
BURLEY         SUNNY     79  39  23 W8        30.09F
EVANSTON, WY   SUNNY     82  13   7 W17G33    30.25S
ROCK SPRINGS   SUNNY     86  12   6 W20G26    30.17F
KEMMERER         N/A     79  16   9 W17G28    30.25F

$$



USA.gov is the U.S. government's official web portal to all federal, state and local government web resources and services.